Location: Wayah Bald
(35.1806°N, 83.5603°W)
Time: 11:45:42
(UTC-04:00)

Daily predictions for brighter satellites

Satellite Brightness Start Highest point End
(mag) Time Altitude Azimuth Time Altitude Azimuth Time Altitude Azimuth
Cosmos 2151 3.9 21:17:16 10° SSE 21:20:54 29° E 21:24:31 10° NNE
Delta 2 Rocket 3.1 21:19:38 10° W 21:23:34 83° N 21:27:06 10° E
S3M 4.0 21:18:14 10° N 21:24:22 82° E 21:30:31 10° S
Cosmos 2228 Rocket 3.5 21:20:34 10° NNW 21:25:03 70° W 21:29:33 10° S
Hubble Space Telescope 2.5 21:22:55 10° SSW 21:25:24 15° SSE 21:27:54 10° ESE
Cosmos 2058 4.4 21:22:42 10° SE 21:25:35 19° E 21:28:28 10° NE
H-2A R/B 2.8 21:22:04 10° S 21:25:53 81° WSW 21:29:42 10° NNW
Cosmos 2219 Rocket 4.2 21:30:19 10° NNE 21:32:49 13° NE 21:35:20 10° E
COSMOS 2428 3.9 21:28:30 10° N 21:33:15 26° ENE 21:37:58 10° ESE
CZ-2D R/B 4.3 21:30:50 10° S 21:34:34 47° W 21:38:19 10° NNW
Resurs 01 Rocket 4.4 21:34:21 10° SW 21:37:03 16° W 21:39:46 10° NW
Cosmos 1437 Rocket 2.7 21:34:16 10° N 21:38:07 80° E 21:42:00 10° S
deb Chang Zheng 4 3.7 21:34:48 10° NNE 21:39:04 55° E 21:43:20 10° S
Cosmos 1515 Rocket 3.7 21:37:18 10° N 21:41:44 78° W 21:46:05 10° S
Cosmos 304 Rocket 4.0 21:37:36 10° N 21:42:21 57° ENE 21:46:51 11° SSE
Cosmos 1726 4.2 21:40:35 10° NE 21:42:29 13° ENE 21:44:08 11° E
SJ-11-01 4.3 21:39:07 10° SSE 21:43:47 70° ENE 21:48:30 10° N
Cosmos 1939 Rocket 3.1 21:43:37 11° SSE 21:47:15 48° ENE 21:51:01 10° N
Meteor 2-20 Rocket 4.4 21:42:33 10° S 21:48:42 79° E 21:54:51 10° N
Cosmos 1633 Rocket 4.4 21:47:00 14° SE 21:49:28 21° E 21:52:45 10° NE
Cosmos 1151 Rocket 3.0 21:45:47 10° N 21:50:06 72° E 21:54:26 10° SSE
CZ-4 DEB 4.0 21:49:35 10° S 21:52:37 39° W 21:55:39 10° NNW
Cosmos 883 Rocket 4.5 21:46:41 10° N 21:52:51 68° E 21:58:56 10° SSE
DELTA 2 R/B (1) 3.6 21:49:13 10° WNW 21:54:47 78° SSW 21:59:15 16° ESE
SPOT 5 3.5 21:51:23 14° SE 21:54:52 38° ENE 21:59:20 10° N
Cosmos 2219 3.3 21:54:34 10° SSW 22:00:19 83° WNW 22:06:06 10° NNE
Cosmos 1680 Rocket 3.5 21:59:30 10° NNW 22:04:47 90° ENE 22:09:18 14° SSE
Aureole 3 4.3 21:59:16 10° S 22:06:00 82° E 22:11:20 10° N
Cosmos 1805 Rocket 3.6 22:01:54 10° S 22:06:16 59° E 22:10:38 10° NNE
Cosmos 405 3.6 22:02:53 10° NNW 22:06:27 57° W 22:09:57 10° S
Cosmos 1328 3.8 22:03:38 10° S 22:07:34 84° W 22:11:33 10° N
Cosmos 2237 Rocket 4.0 22:03:57 10° NNE 22:07:35 17° NE 22:10:50 11° E
H-2A R/B 4.1 22:05:58 10° E 22:08:26 13° ENE 22:10:55 10° NE
Cosmos 2322 Rocket 4.3 22:05:37 10° NW 22:09:48 22° W 22:14:00 10° SSW
Cosmos 923 Rocket 4.5 22:05:05 10° NNW 22:10:11 59° WSW 22:15:09 11° S
Cosmos 2266 Rocket 4.5 22:05:28 10° SSW 22:11:42 63° W 22:17:50 10° N
Cosmos 2322 4.0 22:07:29 10° NNW 22:13:10 68° WSW 22:18:02 14° S
Cosmos 1898 Rocket 3.5 22:08:15 10° S 22:13:21 62° ESE 22:18:29 10° NNE
Cosmos 1271 Rocket 4.1 22:13:02 10° NNE 22:16:08 22° ENE 22:17:01 21° E
Cosmos 220 Rocket 4.5 22:13:44 19° SSE 22:16:27 41° ESE 22:20:37 10° NNE
Cosmos 858 Rocket 4.5 22:11:32 10° S 22:16:39 60° ESE 22:21:46 10° NNE
Cosmos 2360 Rocket 2.6 22:12:10 10° NNW 22:17:43 59° WSW 22:22:32 14° S
NOSS 3-1 (A) 3.4 22:13:48 10° SSW 22:19:36 87° WNW 22:26:00 10° NNE
SPOT 1/Viking Rocket 4.2 22:17:51 23° SE 22:20:32 39° ENE 22:25:19 10° N
Cosmos 1626 4.2 22:21:47 14° ENE 22:21:47 14° ENE 22:23:16 10° NE
H-2A R/B 2.7 22:19:17 13° S 22:23:15 57° W 22:27:43 10° NNW
Cosmos 1703 4.0 22:23:37 30° ESE 22:24:26 33° E 22:27:58 10° NNE
SL-14 R/B 3.2 22:23:01 22° S 22:25:29 70° E 22:29:28 10° NNE
Cosmos 2150 Rocket 4.0 22:21:08 10° SSW 22:26:33 86° ESE 22:32:03 10° NNE
Meteor 2-11 Rocket 4.5 22:21:35 10° N 22:27:40 64° E 22:31:29 24° SSE
Cosmos 1707 Rocket 3.5 22:24:13 10° N 22:28:35 71° E 22:30:45 29° SSE
Cosmos 2315 Rocket 4.0 22:22:22 10° N 22:28:36 87° W 22:33:35 17° S
YAOGAN 6 2.8 22:27:34 36° SE 22:28:41 51° ENE 22:32:11 10° N
OTV 4 0.2 22:25:52 10° WSW 22:28:50 82° SSE 22:29:40 43° E
Cosmos 1666 Rocket 3.5 22:25:56 18° S 22:29:09 80° E 22:33:35 10° N
Terra 3.6 22:31:05 15° E 22:32:20 17° ENE 22:35:19 10° NNE
Meteor 1-27 4.2 22:27:02 10° N 22:32:41 77° E 22:36:02 25° SSE
ATLAS 2AS CENTAUR R/B 3.0 22:34:37 10° S 22:41:39 54° ESE 22:49:19 10° NE
Cosmos 1470 Rocket 4.0 22:42:21 38° ESE 22:42:57 40° E 22:46:59 10° NNE
Cosmos 2227 Rocket 2.2 22:39:38 22° S 22:43:10 56° ESE 22:48:42 10° NNE
Cosmos 1933 Rocket 4.1 22:43:15 38° ESE 22:43:58 40° E 22:48:08 10° NNE
CZ-4 SHROUD 4.1 22:45:24 34° SW 22:46:15 44° W 22:49:16 10° NNW
ERBS 2.9 22:42:51 10° SW 22:46:19 60° NW 22:49:47 10° NNE
Cosmos 1300 3.1 22:44:31 10° NNW 22:48:18 59° W 22:49:46 33° SSW
Envisat 4.0 22:45:27 15° SSW 22:49:21 41° W 22:54:09 10° NNW
Tiangong 1 3.4 22:46:54 10° WNW 22:49:28 23° NNW 22:52:03 10° NE
OAO 2 Rocket 3.3 22:45:04 10° W 22:50:24 85° S 22:53:39 24° E
SL-08 R/B 4.4 22:46:40 23° S 22:50:43 77° E 22:57:00 10° N
NOSS 0 Rocket 4.2 22:45:00 10° NNW 22:51:00 53° ENE 22:53:28 34° ESE
MetOp-A 4.4 22:51:21 26° S 22:54:23 64° WSW 22:59:43 10° NNW
Cosmos 1745 Rocket 3.9 22:52:10 28° S 22:55:34 72° E 23:01:43 10° N
ATLAS 3B R/B 4.1 22:49:58 10° N 22:55:41 26° NE 22:59:20 17° E
SL-16 R/B 3.8 22:58:27 10° N 23:02:42 21° ENE 23:04:25 18° E
Lacrosse 4 Rocket 3.7 23:00:14 10° NNE 23:02:50 15° NE 23:03:42 14° ENE
USA 32 3.9 22:57:46 10° N 23:03:03 87° E 23:04:53 42° S
ARGOS 3.1 23:03:30 41° SSE 23:05:30 89° WSW 23:10:55 10° NNW
Cosmos 2333 Rocket 2.4 23:00:12 10° NNW 23:05:54 59° ENE 23:07:32 43° ESE
Delta 2 Rocket 3.3 23:02:28 10° W 23:05:23 53° WSW 23:05:23 53° WSW
Hubble Space Telescope 2.8 23:02:31 10° SW 23:03:43 17° SW 23:03:43 17° SW
DMSP B5D2-2 4.4 23:01:28 10° NNE 23:06:26 43° E 23:06:47 43° ESE
CZ-4 R/B 3.9 23:02:55 10° N 23:07:49 76° WNW 23:10:05 32° SSW
Cosmos 1937 Rocket 4.2 23:03:53 10° SSW 23:08:59 53° WNW 23:14:05 10° N
Cosmos 2297 Rocket 2.1 23:07:59 42° S 23:09:48 66° ESE 23:15:25 10° NNE
Cosmos 1455 2.8 23:06:55 10° N 23:10:08 45° NE 23:10:08 45° NE
Cosmos 1386 Rocket 4.3 23:13:36 43° S 23:15:40 76° E 23:21:41 10° N
COSMOS 2455 4.0 23:10:46 10° N 23:16:06 32° NE 23:17:55 27° E
Cosmos 990 Rocket 4.2 23:13:16 23° SSW 23:16:29 65° WNW 23:21:36 10° N
Cosmos 2219 Rocket 2.1 23:11:49 10° NNW 23:17:26 82° WSW 23:18:54 51° S
COSMOS 2428 3.7 23:12:21 10° NW 23:17:33 38° WSW 23:20:00 26° SSW
Cosmos 1726 3.7 23:14:34 10° NNW 23:17:55 30° W 23:18:49 26° WSW
CARTOSAT-1 3.7 23:25:07 61° ENE 23:25:07 61° ENE 23:29:14 10° N
Cosmos 1862 Rocket 3.4 23:23:20 10° N 23:27:33 81° NE 23:27:33 81° NE
Meteor 1-4 Rocket 4.1 23:27:49 10° NNW 23:31:03 29° W 23:31:14 29° W
Cosmos 2181 Rocket 4.3 23:32:45 10° N 23:38:57 50° E 23:39:48 47° ESE
Cosmos 1980 3.6 23:34:28 10° NNW 23:40:07 74° WSW 23:40:54 63° SSW
IGS 5A 3.8 23:43:40 64° N 23:43:40 64° N 23:47:14 10° N
NOSS 2-3 (C) 4.2 23:44:46 55° ENE 23:44:46 55° ENE 23:49:13 10° NE
Cosmos 1869 3.9 23:41:32 10° NNW 23:44:53 56° NW 23:44:53 56° NW
Spot 2 4.3 23:40:56 10° NNE 23:46:00 88° W 23:46:03 88° SW
Cosmos 1269 Rocket 4.2 23:41:10 10° N 23:46:25 58° ENE 23:46:29 58° ENE
H-2A R/B 2.1 23:46:30 65° SSW 23:47:07 73° WSW 23:52:34 10° NNW
FALCON 9 R/B 3.5 23:26:36 10° W 23:50:52 85° S 23:54:02 39° ESE
Cosmos 2237 Rocket 2.3 23:46:28 10° NNW 23:52:06 64° WSW 23:52:39 60° SW
Cosmos 1869 Rocket 4.4 23:53:42 43° NE 23:53:42 43° NE 23:56:54 10° NNE
Cosmos 1626 4.0 23:56:29 27° WNW 23:56:29 27° WNW 23:59:35 10° NNW
